Location: Neuvy Saint Sepulchre
(46.5953°N, 1.8122°E)
Time: 06:50:09
(UTC+01:00)

ISS - Pass Details

Date: 02 December 2023
Orbit: 416 x 417 km, 51.6° (Epoch: 01 December)

Event Time Altitude Azimuth Distance (km) Brightness Sun altitude
Rises 19:02:21 0° 295° (WNW) 2,361 0.9 -19.2°
Reaches altitude 10° 19:04:29 10° 290° (WNW) 1,495 -0.1 -19.5°
Maximum altitude 19:07:46 54° 213° (SSW) 513 -3.2 -20.1°
Enters shadow 19:08:24 45° 170° (S) 581 -3.1 -20.2°
